Regional Weather Roundup
Issued by NWS

Home | Current Version | Previous Version | Text Only | Print | Product List | Glossary On
Versions: 1 2 3 4 5 6 7 8 9 10 11 12 13 14 15 16 17 18 19 20 21 22 23 24 25 26 27 28 29 30 31 32 33 34 35 36 37 38 39 40 41 42 43 44 45 46 47 48 49 50
000
ASUS43 KLSX 271459
RWRMO

WEATHER SUMMARY FOR MISSOURI
NATIONAL WEATHER SERVICE SPRINGFIELD MO
1000 AM CDT WED AUG 27 2014

NOTE: "FAIR" INDICATES FEW OR NO CLOUDS BELOW 12,000 FEET WITH NO
       SIGNIFICANT WEATHER AND/OR OBSTRUCTIONS TO VISIBILITY.
       CURRENT SKY AND/OR WEATHER CONDITIONS ARE NOT AVAILABLE FOR
       CHILLICOTHE AND FARMINGTON.

MOZ001>031-035>038-043-044-053-054-271600-
...NORTHERN AND WESTERN MISSOURI...

CITY           SKY/WX    TMP DP  RH WIND       PRES   REMARKS
KANSAS CTY INT PTSUNNY   73  68  84 E9        30.13S
KANSAS C DTWN  MOSUNNY   80  69  69 NE9       30.12R
LEE`S SUMMIT   MOSUNNY   79  71  76 E12       30.14R
ST JOSEPH      TSTM      70  68  93 N5        30.16R
KIRKSVILLE     CLOUDY    72  68  87 N6        30.17F

$$
MOZ066>068-077>081-088>096-101>105-271600-
...SOUTHWEST MISSOURI...

CITY           SKY/WX    TMP DP  RH WIND       PRES   REMARKS
SPRINGFIELD    SUNNY     85  69  58 W7        30.14R
JOPLIN         SUNNY     85  70  60 W9        30.14R

$$
MOZ032>034-039>042-045>050-055>058-069>072-271600-
...CENTRAL MISSOURI...

CITY           SKY/WX    TMP DP  RH WIND       PRES   REMARKS
COLUMBIA       MOSUNNY   85  71  63 NW7       30.11R HX  90
JEFFERSON CITY MOSUNNY   83  72  69 VRB5      30.09R
ROLLA          SUNNY     86  69  56 SW9       30.11S HX  90
SEDALIA        MOSUNNY   80  71  74 NW12      30.14R
OSAGE BEACH    SUNNY     82  72  69 W5        30.11R

$$
MOZ051-052-059>065-271600-
...EAST CENTRAL MISSOURI...

CITY           SKY/WX    TMP DP  RH WIND       PRES   REMARKS
ST LOUIS INTL  MOSUNNY   83  73  72 E6        30.12R
SPIRIT OF STL  MOSUNNY   83  72  69 CALM      30.10R
ST CHARLES     SUNNY     81  73  76 E6        30.10S

$$
MOZ072>076-082>087-097>100-106>115-271600-
...SOUTH CENTRAL AND SOUTHEAST MISSOURI...

CITY           SKY/WX    TMP DP  RH WIND       PRES   REMARKS
CAPE GIRARDEAU SUNNY     84  74  71 CALM      30.11R HX  91
FARMINGTON     SUNNY     84  73  70 CALM      30.15S HX  91
POPLAR BLUFF   SUNNY     84  70  62 CALM      30.09S
WEST PLAINS    SUNNY     86  70  58 VRB3      30.15S HX  90

$$


USA.gov is the U.S. government's official web portal to all federal, state and local government web resources and services.